FIN7DC ESGG-EFRO

Flight info

Callsign FIN7DC
Flight time 1h 39m
Altitude 37000
Route LABAN N873 ARS DCT TOGMI DCT DIVEG T255 RERBU DCT NEPIX
Aircraft A320/M-SDE3FGHIRWY/LB1

Departure

Time 2026-05-07 05:54
Airport Göteborg Landvetter Airport (ESGG)

Arrival

Time 2026-05-07 07:34
Airport Rovaniemi Airport (EFRO)
Time Latitude Longitude Altitude Speed Heading
2026-05-07 05:22 57.66934 12.29465 520 ft 0 kts 116°
2026-05-07 05:47 57.66939 12.29446 517 ft 2 kts 117°
2026-05-07 05:48 57.66947 12.29419 517 ft 2 kts 119°
2026-05-07 05:48 57.66955 12.29393 517 ft 2 kts 124°
2026-05-07 05:48 57.66965 12.29368 516 ft 2 kts 139°
2026-05-07 05:48 57.66979 12.29354 515 ft 2 kts 199°
2026-05-07 05:49 57.66987 12.29359 514 ft 0 kts 206°
2026-05-07 05:49 57.66987 12.29360 514 ft 0 kts 206°
2026-05-07 05:51 57.66987 12.29359 514 ft 1 kts 206°
2026-05-07 05:51 57.66982 12.29308 512 ft 11 kts 276°
2026-05-07 05:51 57.67042 12.29191 512 ft 11 kts 353°
2026-05-07 05:51 57.67111 12.29246 511 ft 12 kts 26°
2026-05-07 05:52 57.67202 12.29328 511 ft 15 kts 25°
2026-05-07 05:52 57.67300 12.29414 510 ft 17 kts 27°
2026-05-07 05:52 57.67403 12.29467 512 ft 14 kts 331°
2026-05-07 05:52 57.67453 12.29318 512 ft 14 kts 293°
2026-05-07 05:53 57.67456 12.29093 509 ft 14 kts 259°
2026-05-07 05:53 57.67412 12.29003 511 ft 7 kts 204°
2026-05-07 05:53 57.67287 12.28888 513 ft 50 kts 206°
2026-05-07 05:53 57.66764 12.28415 510 ft 115 kts 206°
2026-05-07 05:54 57.65879 12.27603 519 ft 166 kts 206°
2026-05-07 05:54 57.65159 12.26946 741 ft 178 kts 206°
2026-05-07 05:54 57.64044 12.25936 1539 ft 177 kts 207°
2026-05-07 05:54 57.62886 12.25039 2132 ft 189 kts 189°
2026-05-07 05:55 57.61527 12.25454 2443 ft 213 kts 156°
2026-05-07 05:55 57.60134 12.26583 3127 ft 220 kts 158°
2026-05-07 05:55 57.58720 12.27726 3970 ft 223 kts 158°
2026-05-07 05:55 57.57383 12.29215 4766 ft 229 kts 132°
2026-05-07 05:56 57.56732 12.31910 5415 ft 239 kts 94°
2026-05-07 05:56 57.57016 12.35070 5810 ft 260 kts 70°
2026-05-07 05:56 57.57666 12.38318 6487 ft 272 kts 66°
2026-05-07 05:56 57.58409 12.41593 7318 ft 276 kts 65°
2026-05-07 05:57 57.59176 12.44916 8163 ft 281 kts 65°
2026-05-07 05:57 57.59946 12.48312 8984 ft 287 kts 65°
2026-05-07 05:57 57.60718 12.51794 9802 ft 293 kts 66°
2026-05-07 05:57 57.61530 12.55320 10537 ft 298 kts 60°
2026-05-07 05:58 57.62711 12.58637 10891 ft 318 kts 47°
2026-05-07 05:58 57.64362 12.61452 11241 ft 333 kts 36°
2026-05-07 05:58 57.66158 12.64362 11916 ft 341 kts 41°
2026-05-07 05:58 57.67853 12.67518 12647 ft 347 kts 44°
2026-05-07 05:59 57.69519 12.70819 13381 ft 352 kts 45°
2026-05-07 05:59 57.71177 12.74150 14081 ft 357 kts 45°
2026-05-07 05:59 57.72885 12.77547 14725 ft 361 kts 44°
2026-05-07 05:59 57.74633 12.80955 15375 ft 364 kts 44°
2026-05-07 06:00 57.76414 12.84372 16037 ft 368 kts 43°
2026-05-07 06:00 57.78219 12.87804 16692 ft 372 kts 43°
2026-05-07 06:00 57.80046 12.91273 17322 ft 376 kts 43°
2026-05-07 06:00 57.81892 12.94780 17969 ft 380 kts 43°
2026-05-07 06:01 57.83758 12.98330 18548 ft 384 kts 43°
2026-05-07 06:01 57.85637 13.01921 19082 ft 388 kts 43°
2026-05-07 06:01 57.87544 13.05580 19625 ft 392 kts 43°
2026-05-07 06:01 57.89459 13.09261 20159 ft 396 kts 43°
2026-05-07 06:02 57.91395 13.12980 20686 ft 400 kts 43°
2026-05-07 06:02 57.93350 13.16738 21216 ft 404 kts 43°
2026-05-07 06:02 57.95324 13.20540 21744 ft 408 kts 43°
2026-05-07 06:02 57.97317 13.24387 22268 ft 412 kts 43°
2026-05-07 06:03 57.99324 13.28274 22787 ft 416 kts 43°
2026-05-07 06:03 58.01351 13.32206 23306 ft 420 kts 43°
2026-05-07 06:03 58.03397 13.36177 23777 ft 424 kts 42°
2026-05-07 06:03 58.05463 13.40187 24192 ft 427 kts 43°
2026-05-07 06:04 58.07515 13.44179 24626 ft 430 kts 43°
2026-05-07 06:04 58.09632 13.48301 25038 ft 433 kts 43°
2026-05-07 06:04 58.11708 13.52359 25438 ft 436 kts 43°
2026-05-07 06:04 58.13820 13.56503 25841 ft 439 kts 43°
2026-05-07 06:05 58.15943 13.60676 26228 ft 441 kts 43°
2026-05-07 06:05 58.18082 13.64888 26622 ft 444 kts 43°
2026-05-07 06:05 58.20229 13.69123 26972 ft 447 kts 43°
2026-05-07 06:05 58.22388 13.73387 27348 ft 449 kts 43°
2026-05-07 06:06 58.24558 13.77677 27716 ft 452 kts 43°
2026-05-07 06:06 58.26740 13.81999 28071 ft 455 kts 43°
2026-05-07 06:06 58.28934 13.86352 28442 ft 458 kts 43°
2026-05-07 06:06 58.31144 13.90747 28750 ft 461 kts 43°
2026-05-07 06:07 58.33369 13.95178 29078 ft 464 kts 43°
2026-05-07 06:07 58.35604 13.99629 29398 ft 467 kts 43°
2026-05-07 06:07 58.37849 14.04113 29721 ft 469 kts 43°
2026-05-07 06:07 58.40102 14.08628 30033 ft 472 kts 43°
2026-05-07 06:08 58.42367 14.13179 30292 ft 474 kts 43°
2026-05-07 06:08 58.44642 14.17761 30553 ft 476 kts 44°
2026-05-07 06:08 58.46923 14.22372 30804 ft 478 kts 44°
2026-05-07 06:08 58.49208 14.26997 31044 ft 480 kts 44°
2026-05-07 06:09 58.51506 14.31653 31282 ft 482 kts 44°
2026-05-07 06:09 58.53818 14.36341 31520 ft 485 kts 44°
2026-05-07 06:09 58.56135 14.41045 31794 ft 486 kts 44°
2026-05-07 06:09 58.58452 14.45761 32102 ft 486 kts 44°
2026-05-07 06:10 58.60769 14.50487 32425 ft 486 kts 44°
2026-05-07 06:10 58.63049 14.55150 32747 ft 486 kts 44°
2026-05-07 06:10 58.65356 14.59883 33022 ft 485 kts 44°
2026-05-07 06:10 58.67667 14.64629 33355 ft 485 kts 44°
2026-05-07 06:11 58.69973 14.69368 33673 ft 485 kts 44°
2026-05-07 06:11 58.72274 14.74105 33994 ft 485 kts 44°
2026-05-07 06:11 58.74573 14.78855 34268 ft 485 kts 45°
2026-05-07 06:11 58.76878 14.83626 34528 ft 486 kts 45°
2026-05-07 06:12 58.79179 14.88400 34742 ft 487 kts 45°
2026-05-07 06:12 58.81477 14.93189 34979 ft 487 kts 45°
2026-05-07 06:12 58.83774 14.97986 35218 ft 487 kts 45°
2026-05-07 06:12 58.86070 15.02786 35453 ft 487 kts 45°
2026-05-07 06:13 58.88372 15.07605 35691 ft 486 kts 45°
2026-05-07 06:13 58.90666 15.12414 35915 ft 486 kts 45°
2026-05-07 06:13 58.92955 15.17221 36140 ft 486 kts 45°
2026-05-07 06:13 58.95250 15.22048 36357 ft 486 kts 45°
2026-05-07 06:14 58.97535 15.26870 36561 ft 486 kts 45°
2026-05-07 06:14 58.99816 15.31700 36776 ft 486 kts 45°
2026-05-07 06:14 59.02100 15.36553 36950 ft 487 kts 45°
2026-05-07 06:15 59.06656 15.46256 37036 ft 484 kts 45°
2026-05-07 06:15 59.11183 15.55906 37039 ft 484 kts 45°
2026-05-07 06:16 59.15723 15.65633 37038 ft 484 kts 46°
2026-05-07 06:16 59.20243 15.75369 37038 ft 484 kts 46°
2026-05-07 06:17 59.24756 15.85141 37059 ft 485 kts 46°
2026-05-07 06:17 59.29271 15.94949 37050 ft 485 kts 46°
2026-05-07 06:18 59.33780 16.04776 37045 ft 485 kts 46°
2026-05-07 06:18 59.38286 16.14643 37046 ft 485 kts 46°
2026-05-07 06:19 59.42712 16.24525 37052 ft 486 kts 48°
2026-05-07 06:19 59.46922 16.34931 37075 ft 487 kts 51°
2026-05-07 06:20 59.51003 16.45575 37035 ft 487 kts 51°
2026-05-07 06:20 59.55116 16.56200 37041 ft 487 kts 51°
2026-05-07 06:21 59.59708 16.65934 37045 ft 483 kts 35°
2026-05-07 06:21 59.65283 16.73172 37049 ft 479 kts 28°
2026-05-07 06:22 59.70954 16.80130 37065 ft 480 kts 28°
2026-05-07 06:22 59.79448 16.90719 37045 ft 481 kts 28°
2026-05-07 06:23 59.85121 16.97786 37045 ft 481 kts 28°
2026-05-07 06:23 59.90755 17.04808 37047 ft 481 kts 28°
2026-05-07 06:24 59.96428 17.11928 37069 ft 482 kts 28°
2026-05-07 06:24 60.02098 17.19086 37060 ft 482 kts 29°
2026-05-07 06:25 60.07767 17.26262 37056 ft 482 kts 29°
2026-05-07 06:25 60.13427 17.33462 37053 ft 482 kts 29°
2026-05-07 06:26 60.19096 17.40687 37053 ft 482 kts 29°
2026-05-07 06:26 60.24757 17.47941 37066 ft 482 kts 29°
2026-05-07 06:27 60.30413 17.55216 37060 ft 482 kts 29°
2026-05-07 06:27 60.36033 17.62473 37059 ft 482 kts 29°
2026-05-07 06:28 60.41679 17.69802 37054 ft 483 kts 29°
2026-05-07 06:28 60.47324 17.77168 37053 ft 483 kts 29°
2026-05-07 06:29 60.52968 17.84562 37052 ft 483 kts 29°
2026-05-07 06:29 60.58606 17.91973 37034 ft 483 kts 30°
2026-05-07 06:30 60.64245 17.99415 37038 ft 483 kts 30°
2026-05-07 06:30 60.69883 18.06890 37053 ft 483 kts 30°
2026-05-07 06:31 60.75488 18.14337 37074 ft 484 kts 30°
2026-05-07 06:31 60.81162 18.21899 37062 ft 484 kts 30°
2026-05-07 06:32 60.86759 18.29418 37062 ft 484 kts 30°
2026-05-07 06:32 60.92384 18.37016 37058 ft 484 kts 30°
2026-05-07 06:33 60.98009 18.44636 37087 ft 484 kts 30°
2026-05-07 06:33 61.03635 18.52282 37074 ft 484 kts 30°
2026-05-07 06:34 61.09251 18.59946 37072 ft 484 kts 30°
2026-05-07 06:34 61.14859 18.67642 37069 ft 484 kts 30°
2026-05-07 06:35 61.20469 18.75361 37065 ft 484 kts 30°
2026-05-07 06:35 61.26069 18.83106 37093 ft 484 kts 30°
2026-05-07 06:36 61.31662 18.90878 37081 ft 484 kts 30°
2026-05-07 06:36 61.37252 18.98689 37071 ft 483 kts 30°
2026-05-07 06:37 61.42836 19.06525 37064 ft 483 kts 30°
2026-05-07 06:37 61.48382 19.14323 37092 ft 483 kts 31°
2026-05-07 06:38 61.53954 19.22211 37078 ft 483 kts 31°
2026-05-07 06:38 61.59524 19.30124 37076 ft 483 kts 31°
2026-05-07 06:39 61.65088 19.38047 37076 ft 483 kts 31°
2026-05-07 06:39 61.70645 19.46010 37072 ft 483 kts 31°
2026-05-07 06:40 61.76176 19.54071 37089 ft 484 kts 35°
2026-05-07 06:40 61.81332 19.63303 37049 ft 485 kts 38°
2026-05-07 06:41 61.86464 19.72584 37048 ft 485 kts 38°
2026-05-07 06:41 61.91600 19.81893 37046 ft 486 kts 38°
2026-05-07 06:42 61.96726 19.91247 37048 ft 486 kts 38°
2026-05-07 06:42 62.01844 20.00653 37079 ft 486 kts 38°
2026-05-07 06:43 62.06951 20.10095 37071 ft 486 kts 38°
2026-05-07 06:43 62.11194 20.17963 37063 ft 486 kts 38°
2026-05-07 06:44 62.16302 20.27454 37063 ft 486 kts 38°
2026-05-07 06:44 62.22224 20.38522 37065 ft 486 kts 38°
2026-05-07 06:45 62.26494 20.46537 37083 ft 487 kts 38°
2026-05-07 06:45 62.31582 20.56133 37078 ft 487 kts 39°
2026-05-07 06:46 62.36667 20.65764 37077 ft 487 kts 39°
2026-05-07 06:46 62.41709 20.75353 37068 ft 487 kts 39°
2026-05-07 06:47 62.46776 20.85072 37076 ft 487 kts 39°
2026-05-07 06:47 62.51833 20.94812 37093 ft 486 kts 39°
2026-05-07 06:48 62.56890 21.04573 37088 ft 486 kts 39°
2026-05-07 06:48 62.61932 21.14353 37054 ft 486 kts 39°
2026-05-07 06:49 62.66972 21.24180 37060 ft 487 kts 39°
2026-05-07 06:49 62.72010 21.34046 37065 ft 487 kts 39°
2026-05-07 06:50 62.77047 21.43944 37092 ft 487 kts 39°
2026-05-07 06:50 62.82080 21.53893 37086 ft 488 kts 40°
2026-05-07 06:51 62.87093 21.63881 37072 ft 488 kts 40°
2026-05-07 06:51 62.92186 21.73708 37070 ft 486 kts 33°
2026-05-07 06:52 62.97568 21.82524 37066 ft 486 kts 34°
2026-05-07 06:52 63.02978 21.91461 37066 ft 486 kts 34°
2026-05-07 06:53 63.08372 22.00441 37067 ft 486 kts 34°
2026-05-07 06:53 63.13765 22.09448 37073 ft 486 kts 34°
2026-05-07 06:54 63.19157 22.18485 37080 ft 486 kts 34°
2026-05-07 06:54 63.24776 22.26638 37108 ft 479 kts 21°
2026-05-07 06:55 63.30922 22.32197 37104 ft 477 kts 18°
2026-05-07 06:55 63.37086 22.37699 37098 ft 477 kts 18°
2026-05-07 06:56 63.43196 22.43226 37093 ft 477 kts 18°
2026-05-07 06:56 63.49344 22.48817 37090 ft 477 kts 18°
2026-05-07 06:57 63.55490 22.54406 37109 ft 477 kts 18°
2026-05-07 06:57 63.61640 22.60014 37091 ft 477 kts 18°
2026-05-07 06:58 63.67786 22.65645 37091 ft 477 kts 18°
2026-05-07 06:58 63.73925 22.71297 37071 ft 477 kts 18°
2026-05-07 06:59 63.80029 22.76963 37075 ft 477 kts 18°
2026-05-07 06:59 63.86161 22.82684 37091 ft 477 kts 19°
2026-05-07 07:00 63.92308 22.88432 37083 ft 477 kts 19°
2026-05-07 07:00 63.98425 22.94186 37080 ft 477 kts 19°
2026-05-07 07:01 64.04562 22.99974 37081 ft 476 kts 19°
2026-05-07 07:01 64.10691 23.05775 37097 ft 476 kts 19°
2026-05-07 07:02 64.16807 23.11602 37090 ft 476 kts 19°
2026-05-07 07:02 64.22916 23.17460 37085 ft 476 kts 19°
2026-05-07 07:03 64.29021 23.23332 37076 ft 475 kts 19°
2026-05-07 07:03 64.35122 23.29231 37075 ft 476 kts 19°
2026-05-07 07:04 64.41230 23.35158 37091 ft 476 kts 19°
2026-05-07 07:04 64.47329 23.41123 37080 ft 475 kts 19°
2026-05-07 07:05 64.53418 23.47114 37074 ft 475 kts 19°
2026-05-07 07:05 64.59499 23.53122 37072 ft 475 kts 19°
2026-05-07 07:06 64.65588 23.59141 37065 ft 475 kts 19°
2026-05-07 07:06 64.71661 23.65182 37088 ft 474 kts 20°
2026-05-07 07:07 64.77699 23.71210 37075 ft 474 kts 20°
2026-05-07 07:07 64.83750 23.77281 37072 ft 474 kts 20°
2026-05-07 07:08 64.89830 23.83423 37062 ft 474 kts 20°
2026-05-07 07:08 64.95920 23.89618 37050 ft 474 kts 20°
2026-05-07 07:09 64.98917 23.92683 36828 ft 474 kts 20°
2026-05-07 07:09 65.01937 23.95783 36580 ft 473 kts 20°
2026-05-07 07:09 65.04957 23.98883 36337 ft 472 kts 20°
2026-05-07 07:09 65.07970 24.01975 36094 ft 472 kts 20°
2026-05-07 07:10 65.10983 24.05066 35855 ft 472 kts 20°
2026-05-07 07:10 65.13992 24.08161 35615 ft 470 kts 20°
2026-05-07 07:10 65.16988 24.11253 35375 ft 468 kts 20°
2026-05-07 07:10 65.19969 24.14343 35155 ft 466 kts 20°
2026-05-07 07:11 65.22922 24.17416 34917 ft 464 kts 20°
2026-05-07 07:11 65.25889 24.20511 34686 ft 462 kts 20°
2026-05-07 07:11 65.28823 24.23580 34362 ft 459 kts 20°
2026-05-07 07:11 65.31747 24.26644 33733 ft 458 kts 20°
2026-05-07 07:12 65.34658 24.29702 33166 ft 455 kts 20°
2026-05-07 07:12 65.37545 24.32744 32615 ft 452 kts 20°
2026-05-07 07:12 65.40414 24.35775 32076 ft 449 kts 20°
2026-05-07 07:12 65.43263 24.38793 31528 ft 446 kts 20°
2026-05-07 07:13 65.46095 24.41804 30998 ft 444 kts 20°
2026-05-07 07:13 65.48915 24.44802 30466 ft 441 kts 20°
2026-05-07 07:13 65.51713 24.47774 29919 ft 439 kts 20°
2026-05-07 07:13 65.54492 24.50732 29376 ft 434 kts 20°
2026-05-07 07:14 65.57236 24.53665 28911 ft 428 kts 20°
2026-05-07 07:14 65.59938 24.56565 28389 ft 418 kts 21°
2026-05-07 07:14 65.62538 24.59362 27945 ft 401 kts 21°
2026-05-07 07:14 65.65033 24.62057 27499 ft 386 kts 21°
2026-05-07 07:15 65.67446 24.64672 27068 ft 377 kts 21°
2026-05-07 07:15 65.69831 24.67253 26631 ft 374 kts 21°
2026-05-07 07:15 65.72168 24.69779 26196 ft 371 kts 21°
2026-05-07 07:15 65.74523 24.72326 25757 ft 369 kts 21°
2026-05-07 07:16 65.76855 24.74856 25317 ft 366 kts 22°
2026-05-07 07:16 65.79179 24.77388 24856 ft 365 kts 22°
2026-05-07 07:16 65.81490 24.79911 24402 ft 363 kts 22°
2026-05-07 07:16 65.83789 24.82425 23938 ft 361 kts 22°
2026-05-07 07:17 65.86079 24.84938 23451 ft 360 kts 22°
2026-05-07 07:17 65.88352 24.87437 22954 ft 357 kts 22°
2026-05-07 07:17 65.90608 24.89922 22502 ft 353 kts 22°
2026-05-07 07:17 65.92841 24.92384 22060 ft 350 kts 22°
2026-05-07 07:18 65.95049 24.94823 21623 ft 347 kts 22°
2026-05-07 07:18 65.97244 24.97249 21189 ft 344 kts 23°
2026-05-07 07:18 65.99420 24.99655 20761 ft 342 kts 22°
2026-05-07 07:18 66.01581 25.02048 20320 ft 340 kts 23°
2026-05-07 07:19 66.03729 25.04443 19914 ft 338 kts 23°
2026-05-07 07:19 66.05862 25.06836 19499 ft 336 kts 23°
2026-05-07 07:19 66.07986 25.09214 19085 ft 335 kts 23°
2026-05-07 07:19 66.10102 25.11580 18668 ft 333 kts 22°
2026-05-07 07:20 66.12276 25.13464 18263 ft 330 kts 14°
2026-05-07 07:20 66.14473 25.15055 17858 ft 328 kts 14°
2026-05-07 07:20 66.16649 25.16646 17470 ft 325 kts 15°
2026-05-07 07:20 66.18805 25.18231 17085 ft 322 kts 15°
2026-05-07 07:21 66.20915 25.19791 16714 ft 319 kts 15°
2026-05-07 07:21 66.23038 25.21362 16344 ft 317 kts 15°
2026-05-07 07:21 66.25145 25.22922 15977 ft 315 kts 15°
2026-05-07 07:21 66.27242 25.24475 15616 ft 313 kts 14°
2026-05-07 07:22 66.29328 25.26022 15254 ft 312 kts 14°
2026-05-07 07:22 66.31402 25.27563 14892 ft 310 kts 14°
2026-05-07 07:22 66.33466 25.29097 14534 ft 309 kts 14°
2026-05-07 07:22 66.35523 25.30624 14178 ft 308 kts 14°
2026-05-07 07:23 66.37574 25.32152 13793 ft 307 kts 14°
2026-05-07 07:23 66.39617 25.33674 13401 ft 305 kts 14°
2026-05-07 07:23 66.41645 25.35186 13028 ft 303 kts 14°
2026-05-07 07:23 66.43661 25.36694 12662 ft 301 kts 15°
2026-05-07 07:24 66.45663 25.38205 12294 ft 299 kts 16°
2026-05-07 07:24 66.47566 25.40289 11933 ft 299 kts 29°
2026-05-07 07:24 66.49263 25.43269 11550 ft 298 kts 36°
2026-05-07 07:24 66.50915 25.46372 11178 ft 297 kts 36°
2026-05-07 07:25 66.54203 25.52541 10418 ft 294 kts 36°
2026-05-07 07:25 66.55836 25.55617 10031 ft 293 kts 36°
2026-05-07 07:25 66.57462 25.58684 9610 ft 292 kts 36°
2026-05-07 07:26 66.59080 25.61744 9219 ft 291 kts 36°
2026-05-07 07:26 66.60693 25.64800 8807 ft 289 kts 36°
2026-05-07 07:26 66.62300 25.67849 8382 ft 288 kts 36°
2026-05-07 07:26 66.63899 25.70888 7947 ft 287 kts 36°
2026-05-07 07:27 66.65491 25.73922 7509 ft 286 kts 36°
2026-05-07 07:27 66.67076 25.76956 7063 ft 286 kts 36°
2026-05-07 07:27 66.68642 25.79964 6617 ft 277 kts 36°
2026-05-07 07:27 66.70143 25.82848 6180 ft 266 kts 37°
2026-05-07 07:28 66.71564 25.85587 5751 ft 255 kts 37°
2026-05-07 07:28 66.72945 25.88262 5384 ft 245 kts 38°
2026-05-07 07:28 66.73982 25.91391 5299 ft 223 kts 66°
2026-05-07 07:28 66.74323 25.95053 5241 ft 210 kts 92°
2026-05-07 07:29 66.74018 25.98620 4914 ft 208 kts 119°
2026-05-07 07:29 66.73197 26.01611 4580 ft 208 kts 130°
2026-05-07 07:29 66.72166 26.04206 4245 ft 206 kts 148°
2026-05-07 07:29 66.70925 26.05683 3939 ft 197 kts 168°
2026-05-07 07:30 66.69569 26.06037 3613 ft 196 kts 187°
2026-05-07 07:30 66.68257 26.05248 3345 ft 192 kts 205°
2026-05-07 07:30 66.67137 26.03494 3107 ft 190 kts 217°
2026-05-07 07:30 66.66084 26.01461 2861 ft 189 kts 217°
2026-05-07 07:31 66.65055 25.99478 2558 ft 181 kts 217°
2026-05-07 07:31 66.64094 25.97628 2291 ft 166 kts 217°
2026-05-07 07:31 66.63219 25.95946 2083 ft 151 kts 217°
2026-05-07 07:31 66.62410 25.94392 1878 ft 142 kts 217°
2026-05-07 07:32 66.61635 25.92905 1688 ft 138 kts 217°
2026-05-07 07:32 66.60880 25.91458 1485 ft 136 kts 216°
2026-05-07 07:32 66.60124 25.90007 1291 ft 137 kts 215°
2026-05-07 07:32 66.59359 25.88541 1089 ft 139 kts 214°
2026-05-07 07:33 66.58582 25.87052 909 ft 141 kts 213°
2026-05-07 07:33 66.58068 25.86060 793 ft 142 kts 216°
2026-05-07 07:33 66.57285 25.84563 646 ft 136 kts 216°
2026-05-07 07:33 66.56667 25.83399 638 ft 85 kts 216°
2026-05-07 07:34 66.56357 25.82794 642 ft 19 kts 218°
2026-05-07 07:34 66.56265 25.82717 642 ft 5 kts 115°
2026-05-07 07:34 66.56247 25.82781 644 ft 10 kts 130°
2026-05-07 07:34 66.56209 25.82898 644 ft 5 kts 128°
2026-05-07 07:35 66.56167 25.82966 645 ft 8 kts 189°
2026-05-07 07:35 66.56126 25.82900 644 ft 8 kts 219°
2026-05-07 07:35 66.56055 25.82767 643 ft 17 kts 217°
2026-05-07 07:35 66.55952 25.82572 643 ft 20 kts 219°
2026-05-07 07:36 66.55881 25.82498 641 ft 6 kts 130°
2026-05-07 07:36 66.55828 25.82616 641 ft 6 kts 139°
2026-05-07 07:36 66.55824 25.82624 641 ft 0 kts 138°